STARLINK-35527 (66092 NORAD) Tracking and Keplerian Element Data

This shows tracking and keplerian element data for the satellite.

Feedback or suggestion? Click here.




ElementValue
Catalog66092
NameSTARLINK-35527
Epoch Orbit1053
Epoch Day352.65369878
Epoch Year2025
RAAN120.567
Inclination53.1591
Eccentricity0.0001121
Argument of Perigee84.1861
Mean Anonmoly275.9268
Mean Motion15.30206331
Decay Rate0.0001398
L11 66092U 25236G 25352.65369878 .00013980 00000+0 48314-3 0 9993
L22 66092 53.1591 120.5670 0001121 84.1861 275.9268 15.30206331 10535



Live tracking and technical data element details for STARLINK-35527 (NORAD 66092). STARLINK-35527 can be tracked NOW for your location showing map with azimuth and elevation plus other details from your city location.







IsCatalogInMostPopularTable: catalog: 66092, numindb: 4
Update: records affected: 1



GetName: 66092 STARLINK-35527

Hit Count: updated at: Sun, 08 Feb 2026 07:54:29 GMT